Regional Weather Roundup
Issued by NWS

Home | Current Version | Previous Version | Text Only | Print | Product List | Glossary Off
Versions: 1 2 3 4 5 6 7 8 9 10 11 12 13 14 15 16 17 18 19 20 21 22 23 24 25 26 27 28 29 30 31 32 33 34 35 36 37 38 39 40 41 42 43 44 45 46 47 48 49 50

000
ASUS43 KMPX 241410
RWRMN
WEATHER ROUNDUP FOR MINNESOTA
NATIONAL WEATHER SERVICE TWIN CITIES/CHANHASSEN MN
900 AM CDT FRI OCT 24 2014


NOTE: "FAIR" INDICATES FEW OR NO CLOUDS BELOW 12,000 FEET WITH NO
SIGNIFICANT WEATHER AND/OR OBSTRUCTIONS TO VISIBILITY. N/A MEANS
CURRENT SKY AND/OR WEATHER CONDITIONS ARE NOT AVAILABLE.

MNZ060>063-068>070-241500-
   Twin Cities Metro

CITY           SKY/WX    TMP DP  RH WIND       PRES   REMARKS
TWIN CITIES    PTSUNNY   50  46  86 SE7       29.89S
ST PAUL        PTSUNNY   50  47  89 SE9       29.91S
CRYSTAL        MOSUNNY   53  47  79 SE5       29.87S
BLAINE         PTSUNNY   52  50  93 SE7       29.88F
LAKEVILLE      PTSUNNY   48  46  93 SE5       29.88F
EDEN PRAIRIE   PTSUNNY   51  46  83 E8        29.87S
SOUTH ST PAUL  PTSUNNY   50  48  93 SE6       29.90S
LAKE ELMO      FAIR      50  46  87 SE5       29.92S
$$
MNZ001>005-007-008-013>017-022>024-027-028-241500-
   Northwest Minnesota

CITY           SKY/WX    TMP DP  RH WIND       PRES   REMARKS
BEMIDJI        PTCLDY    49  42  79 S8        29.78S
HALLOCK        PTCLDY    45  37  76 S7        29.72R
ROSEAU         CLOUDY    46  41  81 S6        29.72S
WARROAD        CLOUDY    48  43  81 SW8       29.72F
THIEF RVR FALL PTCLDY    46  41  81 SW9       29.77R
CROOKSTON      PTCLDY    45  41  87 S6        29.78R
FOSSTON        CLEAR     45  41  87 S9        29.79S
DETROIT LAKES  CLEAR     46  43  87 S5        29.81S
MOORHEAD       PTCLDY    46  45  93 S7        29.82R
PARK RAPIDS    PTCLDY    44  42  93 S6        29.82R
$$
MNZ006-009>011-018-025>026-241500-
   North Central Minnesota

CITY           SKY/WX    TMP DP  RH WIND       PRES   REMARKS
BAUDETTE       CLOUDY    51  42  71 SW6       29.73S
FLAG ISLAND    CLOUDY    48  43  81 S6        29.69S
INTL FALLS     CLOUDY    52  43  71 VRB5      29.74F
WASKISH        CLOUDY    54  43  66 CALM      29.76R
BIG FORK       CLOUDY    54  43  66 S9        29.79S
LONGVILLE      MOSUNNY   43  43 100 S6        29.82S
GRAND RAPIDS   PTSUNNY   48  41  76 S13       29.82F
CRANE LAKE     CLOUDY    52  45  76 S7        29.79S
ORR            CLOUDY    50  41  71 S7        29.77S
COOK           CLOUDY    52  45  76 S8        29.80S
WALKER         FAIR      49  42  79 SW7       29.80S
$$
MNZ012-019>021-037-241500-
   Northeast Minnesota

CITY           SKY/WX    TMP DP  RH WIND       PRES   REMARKS
DULUTH         PTSUNNY   49  45  86 S9        29.86F
ELY            CLOUDY    52  45  76 SW6       29.82F
HIBBING        CLOUDY    43  40  89 S3        29.84S
EVELETH        CLOUDY    43  41  93 CALM      29.85S FOG
DULUTH HARBOR  CLOUDY    46  46 100 CALM      29.88F FOG
TWO HARBORS    CLOUDY    50  37  62 SW5       29.85F HAZE
SILVER BAY     CLOUDY    46  45  93 CALM      29.86R FOG
GRAND MARAIS     N/A     48  47  96 CALM      29.88S
G MARAIS ARPRT FOG       45  43  93 S6        29.88R VSB<1/4
$$
MNZ029>031-032-039>041-046>048-054>057-064-241500-
   West Central Minnesota

CITY           SKY/WX    TMP DP  RH WIND       PRES   REMARKS
FERGUS FALLS   MOCLDY    45  43  93 S7        29.84S
WHEATON        MOCLDY    37  37 100 S3        29.85S
MORRIS         PTSUNNY   43  43 100 S3        29.84R
ALEXANDRIA     PTSUNNY   46  43  89 SE3       29.85R
ELBOW LAKE     FAIR      44  42  94 S5        29.84R
WADENA         SUNNY     43  41  93 CALM      29.83R
GLENWOOD       PTSUNNY   45  43  93 CALM      29.85R
APPLETON       PTSUNNY   43  39  87 CALM      29.84S
BENSON         PTSUNNY   43  41  93 CALM      29.85R
ORTONVILLE     CLOUDY    43  41  93 CALM      29.84R FOG
MADISON        PTSUNNY   45  43  93 CALM      29.85R
WILLMAR        FAIR      46  43  87 SE5       29.86S
$$
MNZ033>034-036-042>043-049>051-058-059-241500-
   Central Minnesota

CITY           SKY/WX    TMP DP  RH WIND       PRES   REMARKS
ST CLOUD       MOSUNNY   50  43  77 SE6       29.86S
SAUK CENTRE    FAIR      43  41  93 CALM      29.85R
PAYNESVILLE    PTSUNNY   46  42  86 E7        29.85S
AITKIN         MOSUNNY   52  45  76 S8        29.83S
PINE RIVER     MOSUNNY   45  41  87 SE3       29.87S
BRAINERD       MOSUNNY   48  42  80 S10       29.84F
STAPLES        FOG       45  43  93 S3        29.84R VSB 3/4
LONG PRAIRIE   FAIR      45  41  87 S3        29.85R
LITTLE FALLS   MOSUNNY   46  39  76 CALM      29.85S
LITCHFIELD     PTSUNNY   48  46  93 CALM      29.86S
BUFFALO        PTSUNNY   50  44  79 CALM      29.88R
MAPLE LAKE     PTSUNNY   51  46  83 SE3       29.87S
$$
MNZ037-044-045-052-053-241500-
   East Central Minnesota

CITY           SKY/WX    TMP DP  RH WIND       PRES   REMARKS
PRINCETON      MOSUNNY   48  46  93 SE3       29.87F
MORA             N/A     43  43 100 E3        29.89F FOG
CAMBRIDGE      MOSUNNY   52  43  71 SE6       29.86S
RUSH CITY      MOSUNNY   47  46  97 SE7       29.89S
MOOSE LAKE     SUNNY     46  45  93 S5        29.86S FOG
HINCKLEY       FOG       45  45 100 CALM      29.89S VSB<1/4
CLOQUET        MOSUNNY   46  46 100 S5        29.86F FOG
MCGREGOR       MOSUNNY   46  45  93 S5        29.86S
$$
MNZ071>073-080-081-089-090-097-098-241500-
   Southwest Minnesota

CITY           SKY/WX    TMP DP  RH WIND       PRES   REMARKS
MONTEVIDEO     PTSUNNY   46  46 100 CALM      29.85S
GRANITE FALLS  PTSUNNY   44  43  95 SE3       29.86R
CANBY          FAIR      48  47  95 CALM      29.87R
MARSHALL       PTSUNNY   50  45  81 NW7       29.85R
REDWOOD FALLS  PTSUNNY   46  43  89 SE5       29.85R
OLIVIA         PTSUNNY   46  43  87 SE3       29.84S
PIPESTONE        N/A     48  46  93 CALM      29.87R FOG
WINDOM         PTSUNNY   54  50  87 SW7       29.86R
WORTHINGTON    CLOUDY    54  50  87 SW10      29.87R
JACKSON        PTSUNNY   55  52  88 SW13      29.86R
TRACY          PTSUNNY   53  50  90 W7        29.86R
SLAYTON        CLOUDY    52  51  96 W8        29.86R FOG
$$
MNZ065>067-074>077-082>085-091>093-241500-
   South Central Minnesota

CITY           SKY/WX    TMP DP  RH WIND       PRES   REMARKS
MANKATO        PTSUNNY   54  45  71 S7        29.87S
NEW ULM          N/A     48  46  93 S6        29.86R
ST JAMES       PTSUNNY   52  46  82 SE6       29.88R
FAIRMONT       PTSUNNY   52  46  82 S8        29.87R
GLENCOE        PTSUNNY   51  47  86 CALM      29.86R
FARIBAULT      PTSUNNY   54  48  82 S7        29.89S
OWATONNA       PTSUNNY   54  48  82 SE14G20   29.88F
WASECA         CLOUDY    50  45  81 SE3       29.90S
ALBERT LEA     PTSUNNY   50  48  93 SE9       29.89F FOG
$$
MNZ078>079-086>088-094>096-241500-
   Southeast Minnesota

CITY           SKY/WX    TMP DP  RH WIND       PRES   REMARKS
ROCHESTER      PTSUNNY   48  47  96 S10       29.94S FOG
RED WING       PTSUNNY   50  48  93 SE9       29.92S
STANTON        PTSUNNY   54  48  79 S6        29.88F
DODGE CENTER   CLOUDY    52  48  87 SE9       29.91F
WINONA         CLOUDY    54  52  94 SE6       29.98R
AUSTIN         PTSUNNY   48  48 100 SE7       29.92S
PRESTON        FOG       48  48  98 S8        29.98R VSB<1/4
$$
ABBREVIATIONS USED IN REMARKS
   TC - TEMPERATURES IN CELSIUS
  WCI - WIND CHILL INDEX
   HX - HEAT INDEX
  VSB - VISIBILITY
$$



USA.gov is the U.S. government's official web portal to all federal, state and local government web resources and services.